| time (UTC) | temp F | wind direction | speed MPH | gust MPH | rain 1hr in | rain 24hr in | rain mn in | humidity % | barometer mb |
| 20260503210502 | 54 | 2.0 | 0.0 | 0.00 | 0.00 | 0.00 | 41 | 1017.0 | |
| 20260503203502 | 54 | 220 | 5.0 | 0.0 | 0.00 | 0.00 | 0.00 | 41 | 1018.0 |
| 20260503200502 | 54 | 230 | 5.0 | 0.0 | 0.00 | 0.00 | 0.00 | 41 | 1018.0 |
| 20260503193502 | 54 | 220 | 5.0 | 0.0 | 0.00 | 0.00 | 0.00 | 44 | 1018.0 |
| 20260503190503 | 54 | 210 | 5.0 | 0.0 | 0.00 | 0.00 | 0.00 | 41 | 1018.0 |
| 20260503183502 | 57 | 220 | 3.0 | 0.0 | 0.00 | 0.00 | 0.00 | 36 | 1018.0 |
| 20260503180502 | 57 | 260 | 3.0 | 0.0 | 0.00 | 0.00 | 0.00 | 33 | 1018.0 |
| 20260503173502 | 57 | 270 | 5.0 | 0.0 | 0.00 | 0.00 | 0.00 | 36 | 1018.0 |
| 20260503170503 | 59 | 2.0 | 0.0 | 0.00 | 0.00 | 0.00 | 34 | 1018.0 | |
| 20260503150503 | 61 | 310 | 5.0 | 0.0 | 0.00 | 0.00 | 0.00 | 31 | 1019.0 |
| 20260503130502 | 61 | 3.0 | 0.0 | 0.00 | 0.00 | 0.00 | 27 | 1020.0 | |
| 20260503110502 | 61 | 3.0 | 0.0 | 0.00 | 0.00 | 0.00 | 27 | 1022.0 | |
| 20260503090502 | 59 | 70 | 6.0 | 0.0 | 0.00 | 0.00 | 0.00 | 31 | 1023.0 |
| 20260503080502 | 57 | 2.0 | 0.0 | 0.00 | 0.00 | 0.00 | 27 | 1023.0 | |
| 20260503070503 | 55 | 2.0 | 0.0 | 0.00 | 0.00 | 0.00 | 33 | 1023.0 | |
| 20260503053504 | 43 | 220 | 2.0 | 0.0 | 0.00 | 0.00 | 0.00 | 61 | 1023.0 |
| 20260503050503 | 43 | 220 | 2.0 | 0.0 | 0.00 | 0.00 | 0.00 | 61 | 1023.0 |
| 20260503043503 | 41 | 2.0 | 0.0 | 0.00 | 0.00 | 0.00 | 66 | 1023.0 | |
| 20260503040504 | 39 | 0 | 0.0 | 0.0 | 0.00 | 0.00 | 0.00 | 70 | 1023.0 |
| 20260503033502 | 36 | 0 | 0.0 | 0.0 | 0.00 | 0.00 | 0.00 | 75 | 1023.0 |
| 20260503030503 | 36 | 0 | 0.0 | 0.0 | 0.00 | 0.00 | 0.00 | 75 | 1023.0 |
| 20260503023503 | 34 | 260 | 1.0 | 0.0 | 0.00 | 0.00 | 0.00 | 75 | 1023.0 |
| 20260503020502 | 37 | 290 | 3.0 | 0.0 | 0.00 | 0.00 | 0.00 | 65 | 1023.0 |
| 20260503013503 | 39 | 280 | 2.0 | 0.0 | 0.00 | 0.00 | 0.00 | 65 | 1023.0 |
| 20260503010503 | 39 | 0 | 0.0 | 0.0 | 0.00 | 0.00 | 0.00 | 65 | 1023.0 |
| 20260503003502 | 39 | 290 | 1.0 | 0.0 | 0.00 | 0.00 | 0.00 | 70 | 1023.0 |
| 20260503000502 | 37 | 250 | 1.0 | 0.0 | 0.00 | 0.00 | 0.00 | 70 | 1023.0 |
| 20260502233502 | 43 | 280 | 2.0 | 0.0 | 0.00 | 0.00 | 0.00 | 61 | 1023.0 |
| 20260502230502 | 45 | 0 | 0.0 | 0.0 | 0.00 | 0.00 | 0.00 | 53 | 1023.0 |
| 20260502223502 | 45 | 0 | 0.0 | 0.0 | 0.00 | 0.00 | 0.00 | 49 | 1023.0 |
| 20260502220503 | 45 | 1.0 | 0.0 | 0.00 | 0.00 | 0.00 | 49 | 1023.0 | |
| 20260502213502 | 45 | 0 | 0.0 | 0.0 | 0.00 | 0.00 | 0.00 | 49 | 1023.0 |